[[{"header":{"parameterUnit":"m.s-1","parameterCategory":2,"la1":30.2991,"la2":30.254,"lo1":-89.0895,"lo2":-89.0444,"dy":0.0017,"dx":0.0017,"nx":28,"ny":28,"refTime":"2025-02-06T09:00:00:Z","depth":"0","parameterNumber":2,"parameterNumberName":"U-component_of_CURRENTS"},"data":[0,0,0,0,0,0,0,0,0,0,0,0,0,0,0,0,0,0,0,0,0,0,0,0,0,0,0,0,0,0,0,0,0,0,0,0,0,0,0,0,0,0,0,0,0,0,0,0,0,0,0,0,0,0,0,0,0,0,0.328,0.3281,0,0.3323,0.3323,0.3323,0.329,0.3289,0.3288,0.3287,0.3348,0.335,0.3353,0,0,0,0,0,0,0,0,0,0,0,0,0,0.3189,0.319,0.328,0.3281,0.3282,0.3323,0.3323,0.3323,0.329,0.3289,0.3288,0.3287,0.3347,0.335,0.3353,0,0,0,0,0,0,0,0,0,0,0,0,0,0.3225,0.3191,0.328,0.3274,0.3274,0.3323,0.3323,0.3323,0.3291,0.3289,0.3288,0.3286,0.3346,0.335,0.3353,0.3407,0,0,0.3365,0.3367,0,0,0,0,0,0,0,0,0.3223,0.3228,0.3274,0.3275,0.3275,0.3304,0.3313,0.3354,0.3291,0.328,0.3287,0.3286,0.3339,0.3343,0.3348,0.341,0.3412,0.3365,0.3368,0.3369,0.337,0,0,0,0,0,0,0,0.3221,0.3226,0.3292,0.3275,0.3276,0.3276,0.3279,0.332,0.3314,0.328,0.3279,0.3292,0.3338,0.3344,0.3349,0.3413,0.3365,0.3369,0.3371,0.3373,0.3541,0.3543,0,0,0,0,0,0,0.3226,0.3224,0.3291,0.3294,0.325,0.3279,0.3282,0.3292,0.3313,0.3316,0.3293,0.329,0.3338,0.3345,0.3351,0.343,0.3369,0.3373,0.3375,0.3539,0.3541,0.3544,0,0,0,0,0,0,0.3224,0.3231,0.3289,0.3264,0.3272,0.3283,0.3294,0.3294,0.3301,0.3323,0.3325,0.33,0.3337,0.3346,0.3396,0.3432,0.3375,0.3378,0.3536,0.3539,0.3543,0.358,0,0,0,0,0,0,0.3221,0.323,0.3244,0.3264,0.3273,0.3325,0.3296,0.3296,0.3313,0.3309,0.3331,0.3334,0.3337,0.339,0.34,0.3436,0.3381,0.3533,0.3538,0.3541,0.3576,0.3584,0.3591,0,0,0,0,0,0.3217,0.3241,0.3244,0.3253,0.329,0.3327,0.3332,0.3331,0.3315,0.3328,0.3342,0.3334,0.3423,0.3396,0.3406,0.3444,0.3531,0.3536,0.3541,0.3572,0.3582,0.3591,0,0,0,0,0,0,0.3209,0.3241,0.3244,0.3277,0.3305,0.3323,0.3341,0.334,0.3361,0.3358,0.3363,0.337,0.3432,0.3438,0.3407,0.3506,0.3476,0.3484,0.3496,0.3506,0.3513,0.3519,0.3384,0,0,0,0,0,0.3216,0.324,0.3272,0.3299,0.3314,0.3329,0.3345,0.3348,0.3369,0.3375,0.3393,0.342,0.3464,0.3481,0.3521,0.3574,0.3618,0.3606,0.3614,0.362,0.3634,0.3727,0.3744,0.356,0.356,0.356,0,0,0.322,0.3243,0.3256,0.3299,0.3317,0.335,0.3333,0.3365,0.339,0.3384,0.3425,0.3455,0.3488,0.3547,0.3574,0.3551,0.3702,0.3626,0.3631,0.3642,0.3734,0.3752,0.3768,0.3563,0.3563,0.3562,0,0,0.3241,0.3262,0.3288,0.3317,0.3357,0.3372,0.3384,0.3414,0.3423,0.3473,0.348,0.3529,0.3583,0.3615,0.3637,0.3715,0.3746,0.3729,0.3763,0.3853,0.3869,0.3883,0.3985,0.4008,0.3722,0.3722,0.3722,0,0.3246,0.328,0.3303,0.334,0.3368,0.3383,0.3419,0.3441,0.3483,0.3512,0.3491,0.3605,0.3618,0.3708,0.3722,0.3732,0.3794,0.3719,0.3863,0.3878,0.3892,0.3993,0.4018,0.3725,0.3724,0.3724,0.3724,0,0.3286,0.3317,0.3338,0.3386,0.3422,0.3457,0.3495,0.3534,0.3547,0.3571,0.3661,0.3691,0.3756,0.377,0.3762,0.3875,0.3893,0.3868,0.3835,0.3912,0.4014,0.404,0.3728,0.3727,0.3726,0.3726,0,0,0.3277,0.3351,0.3354,0.3384,0.3448,0.3479,0.3544,0.3608,0.3663,0.3699,0.3787,0.3834,0.3852,0.388,0.3894,0.3956,0.4097,0.3949,0.3952,0.4043,0.4326,0.428,0.4303,0.41,0.4104,0.4107,0.4364,0,0.3296,0.3361,0.3398,0.3459,0.3496,0.3549,0.361,0.3675,0.373,0.3822,0.3866,0.3952,0.3893,0.3945,0.3994,0.4091,0.4163,0.4032,0.4243,0.425,0.4194,0.433,0.4167,0.4377,0.4389,0.4393,0.4396,0,0.3315,0.3355,0.3416,0.3501,0.3524,0.3566,0.3681,0.3744,0.3873,0.3926,0.4014,0.4063,0.4177,0.411,0.4294,0.4218,0.4273,0.4326,0.4337,0.4297,0.4251,0.4299,0.4422,0.4289,0.4435,0.4432,0.443,0,0.3286,0.3366,0.3411,0.3439,0.3541,0.3585,0.3647,0.377,0.3853,0.4012,0.4106,0.4221,0.4308,0.4402,0.4475,0.4415,0.4684,0.4617,0.4633,0.4632,0.4536,0.4517,0.4544,0.4752,0.4751,0.475,0.4749,0,0.329,0.3324,0.3396,0.342,0.3497,0.3571,0.368,0.377,0.3927,0.4047,0.4151,0.4278,0.4383,0.4527,0.4574,0.4699,0.4767,0.4687,0.4707,0.4545,0.4526,0.4435,0.4376,0.476,0.4758,0.4756,0.4754,0,0.3262,0.3306,0.3361,0.345,0.3485,0.354,0.3695,0.3781,0.3933,0.4111,0.4176,0.437,0.4557,0.4666,0.4849,0.4829,0.4831,0.4968,0.4774,0.4765,0.4612,0.4562,0.4515,0.4375,0.5055,0.5055,0.5056,0,0.3263,0.3284,0.3368,0.3409,0.3449,0.3544,0.3621,0.377,0.387,0.4157,0.4241,0.448,0.4621,0.489,0.4923,0.5054,0.4873,0.4953,0.4784,0.4623,0.4585,0.4396,0.4266,0.4696,0.4694,0.4692,0.469,0,0.3271,0.3289,0.334,0.3407,0.3471,0.3548,0.3659,0.3736,0.3929,0.4085,0.4291,0.4442,0.4693,0.475,0.4908,0.4945,0.4713,0.4913,0.4802,0.4366,0.4112,0.3978,0.4519,0.4672,0.4674,0.4675,0.4676,0.4677,0.3285,0.3311,0.3365,0.342,0.3477,0.352,0.3546,0.3671,0.381,0.3984,0.4209,0.4355,0.4545,0.474,0.4751,0.4643,0.4603,0.4507,0.4489,0.4336,0.4087,0.4594,0.4714,0.4716,0.4718,0.4719,0.472,0,0.3306,0.333,0.3382,0.3419,0.3419,0.3469,0.3545,0.3536,0.3615,0.3828,0.3981,0.4157,0.4266,0.4369,0.4393,0.4244,0.4026,0.4125,0.3813,0.3725,0.4249,0.4113,0.4038,0.4038,0.4038,0.4038,0.4039,0.4039,0.3327,0.3363,0.3365,0.3343,0.3346,0.3295,0.3293,0.3295,0.3382,0.3464,0.3539,0.3695,0.3959,0.416,0.4049,0.3939,0.3607,0.3476,0.3443,0.3806,0.3837,0.3867,0.3723,0.3567,0.3567,0.274,0.2734,0.2729]},{"header":{"parameterUnit":"m.s-1","parameterCategory":2,"la1":30.2991,"la2":30.254,"lo1":-89.0895,"lo2":-89.0444,"dy":0.0017,"dx":0.0017,"nx":28,"ny":28,"refTime":"2025-02-06T09:00:00:Z","depth":"0","parameterNumber":3,"parameterNumberName":"V-component_of_CURRENTS"},"data":[0,0,0,0,0,0,0,0,0,0,0,0,0,0,0,0,0,0,0,0,0,0,0,0,0,0,0,0,0,0,0,0,0,0,0,0,0,0,0,0,0,0,0,0,0,0,0,0,0,0,0,0,0,0,0,0,0,0,0.0147,0.0146,0,0.0067,0.0066,0.0065,0.0002,0.0002,0.0001,0.0001,-0.0119,-0.0122,-0.0125,0,0,0,0,0,0,0,0,0,0,0,0,0,0.0177,0.0177,0.0147,0.0146,0.0145,0.0067,0.0066,0.0065,0.0002,0.0002,0.0001,0.0001,-0.0119,-0.0122,-0.0125,0,0,0,0,0,0,0,0,0,0,0,0,0,0.0136,0.0177,0.0147,0.0106,0.0102,0.0068,0.0066,0.0064,0.0002,0.0002,0.0001,0.0001,-0.0117,-0.0122,-0.0126,-0.014,0,0,-0.0139,-0.0141,0,0,0,0,0,0,0,0,0.0138,0.0134,0.0113,0.0109,0.0104,0.0046,0.0033,-0.0005,0.0003,0.0038,0.0001,0.0,-0.0066,-0.0074,-0.0091,-0.0145,-0.0151,-0.0139,-0.0142,-0.0143,-0.0145,0,0,0,0,0,0,0,0.0141,0.0137,0.0113,0.0112,0.0107,0.0069,0.0063,0.0025,-0.0012,0.0035,0.003,0.0026,-0.0069,-0.0087,-0.0094,-0.0152,-0.0139,-0.0143,-0.0145,-0.0147,-0.021,-0.0209,0,0,0,0,0,0,0.016,0.014,0.0115,0.0111,0.0123,0.007,0.0063,0.0063,-0.0011,-0.0022,0.0026,0.0023,-0.0079,-0.0089,-0.0099,-0.0093,-0.0143,-0.0147,-0.015,-0.0211,-0.021,-0.0209,0,0,0,0,0,0,0.0161,0.0159,0.0119,0.0125,0.0117,0.0071,0.0071,0.0062,0.0048,-0.0017,-0.0029,0.0022,-0.008,-0.0093,-0.0121,-0.0099,-0.0149,-0.0153,-0.0212,-0.0211,-0.0209,-0.0099,0,0,0,0,0,0,0.0162,0.016,0.0166,0.0127,0.0118,0.0112,0.0072,0.0061,0.0047,0.0042,-0.0024,-0.0036,-0.0081,-0.0114,-0.0125,-0.0106,-0.0157,-0.0213,-0.0211,-0.021,-0.0104,-0.0094,-0.0086,0,0,0,0,0,0.0164,0.0182,0.0167,0.0163,0.0128,0.0113,0.0105,0.0067,0.0047,0.005,0.0006,-0.0034,-0.0112,-0.0117,-0.013,-0.0112,-0.0214,-0.0212,-0.021,-0.0108,-0.0096,-0.0086,0,0,0,0,0,0,0.0198,0.0176,0.0159,0.0169,0.0147,0.0104,0.0102,0.0077,0.0044,0.0038,-0.0026,-0.004,-0.0058,-0.0099,-0.0103,-0.0125,-0.0169,-0.0169,-0.0086,-0.0076,-0.0067,-0.0035,-0.016,0,0,0,0,0,0.021,0.0216,0.0187,0.0194,0.0188,0.0146,0.0134,0.0112,0.0078,0.0063,0.0018,-0.0027,-0.0061,-0.0078,-0.0119,-0.0129,-0.0151,-0.0126,-0.0117,-0.0109,-0.0092,-0.0104,-0.0094,-0.0203,-0.0203,-0.0203,0,0,0.0224,0.0213,0.0215,0.0201,0.0179,0.0189,0.0137,0.0131,0.0139,0.0055,0.005,-0.0001,-0.0058,-0.007,-0.0081,-0.01,-0.0088,-0.0106,-0.0099,-0.0086,-0.0101,-0.0091,-0.0081,-0.0201,-0.0202,-0.0202,0,0,0.0265,0.0248,0.0271,0.0262,0.0244,0.0221,0.0226,0.0191,0.0176,0.0161,0.0108,0.0077,0.002,-0.0009,-0.0033,0.0002,-0.0043,-0.0014,0.006,0.0048,0.0058,0.0065,0.0064,0.0071,-0.0006,-0.0005,-0.0005,0,0.0284,0.0308,0.0274,0.0296,0.03,0.0245,0.0274,0.0254,0.0214,0.0217,0.0175,0.0115,0.0052,0.0057,0.0059,0.0024,0.0014,0.0026,0.0062,0.0069,0.0075,0.0072,0.0078,0.0,-0.0001,-0.0001,-0.0002,0,0.0344,0.0363,0.0377,0.0388,0.0386,0.0401,0.0375,0.0374,0.0342,0.032,0.0311,0.0232,0.0199,0.0172,0.0119,0.0139,0.0118,0.0074,0.0041,0.0094,0.0086,0.009,0.0008,0.0006,0.0004,0.0003,0,0,0.0393,0.0417,0.0422,0.045,0.0439,0.045,0.0469,0.0478,0.0518,0.0453,0.0501,0.0407,0.0362,0.0332,0.0267,0.0249,0.0265,0.0186,0.0183,0.0196,0.0256,0.0226,0.0228,0.0231,0.0233,0.0233,0.0238,0,0.0452,0.0523,0.051,0.0575,0.0612,0.058,0.0617,0.0616,0.0601,0.0633,0.0554,0.0566,0.0425,0.043,0.0378,0.0309,0.0281,0.0269,0.0192,0.0191,0.0167,0.0233,0.0203,0.0203,0.0242,0.0242,0.0243,0,0.052,0.056,0.0637,0.0696,0.0711,0.074,0.0798,0.0827,0.0845,0.0841,0.0815,0.0758,0.072,0.0602,0.0485,0.0487,0.0374,0.0306,0.0304,0.0243,0.017,0.0152,0.0209,-0.0024,0.0249,0.0248,0.0248,0,0.0587,0.0651,0.0719,0.0736,0.0789,0.0827,0.0863,0.0894,0.0968,0.0995,0.1064,0.096,0.0963,0.0806,0.0612,0.0563,0.0502,0.0415,0.0282,0.0279,0.0221,0.0211,0.0053,0.0334,0.0334,0.0334,0.0334,0,0.0664,0.072,0.0763,0.0804,0.0921,0.092,0.1051,0.1077,0.1162,0.1297,0.1185,0.1276,0.1016,0.0933,0.0714,0.0528,0.0568,0.032,0.0286,0.0259,0.0253,0.0019,-0.0112,0.0334,0.0334,0.0334,0.0334,0,0.0736,0.0755,0.0848,0.0919,0.096,0.1049,0.12,0.1305,0.1366,0.1549,0.1583,0.1537,0.1432,0.1167,0.094,0.0695,0.0369,0.0419,0.041,0.0373,0.0008,-0.0114,-0.0296,-0.0394,0.0283,0.0283,0.0282,0,0.0789,0.084,0.0945,0.1031,0.1071,0.1207,0.1324,0.1409,0.1542,0.1729,0.1842,0.1798,0.1797,0.1446,0.1005,0.0639,0.0388,0.0361,0.0239,0.0009,-0.0154,-0.0253,-0.0329,0.021,0.0209,0.0208,0.0207,0,0.0903,0.0923,0.1006,0.1174,0.13,0.1455,0.1624,0.1761,0.1902,0.206,0.2249,0.2276,0.1942,0.1549,0.1021,0.0742,0.0186,0.0332,0.0094,-0.0214,-0.033,-0.0447,0.019,0.0199,0.02,0.0201,0.0201,0.0202,0.0997,0.1078,0.1187,0.1346,0.1491,0.1684,0.1834,0.2027,0.2262,0.2514,0.2526,0.2602,0.2016,0.129,0.0898,0.0117,0.013,-0.0135,-0.0257,-0.0329,-0.0456,0.0175,0.0138,0.0138,0.0139,0.0139,0.0139,0,0.1121,0.121,0.1366,0.1544,0.1699,0.1757,0.2026,0.2188,0.2465,0.2683,0.2833,0.2561,0.1866,0.1145,0.0098,-0.0394,-0.0587,-0.0662,-0.0831,-0.0876,-0.0315,-0.0353,-0.0497,-0.0497,-0.0497,-0.0497,-0.0496,-0.0496,0.1201,0.1354,0.1421,0.1689,0.181,0.2031,0.218,0.2437,0.2632,0.2867,0.2889,0.2867,0.2236,0.0474,-0.0697,-0.0943,-0.1294,-0.1375,-0.1511,-0.1173,-0.1134,-0.1097,-0.1165,-0.1477,-0.1478,-0.2031,-0.2037,-0.2041]}],[{"header":{"parameterUnit":"m.s-1","parameterCategory":2,"la1":30.2991,"la2":30.254,"lo1":-89.0895,"lo2":-89.0444,"dy":0.0017,"dx":0.0017,"nx":28,"ny":28,"refTime":"2025-02-06T09:00:00:Z","depth":"2","parameterNumber":2,"parameterNumberName":"U-component_of_CURRENTS"},"data":[0,0,0,0,0,0,0,0,0,0,0,0,0,0,0,0,0,0,0,0,0,0,0,0,0,0,0,0,0,0,0,0,0,0,0,0,0,0,0,0,0,0,0,0,0,0,0,0,0,0,0,0,0,0,0,0,0,0,0.2618,0.2619,0,0.2673,0.2674,0.2674,0.2684,0.2684,0.2684,0.2683,0.2716,0.2717,0.2718,0,0,0,0,0,0,0,0,0,0,0,0,0,0.2533,0.2534,0.2618,0.2619,0.262,0.2673,0.2674,0.2674,0.2684,0.2684,0.2684,0.2683,0.2716,0.2717,0.2719,0,0,0,0,0,0,0,0,0,0,0,0,0,0.2575,0.2535,0.2618,0.2633,0.2635,0.2673,0.2674,0.2675,0.2684,0.2684,0.2683,0.2683,0.2715,0.2717,0.2719,0.2737,0,0,0.2724,0.2725,0,0,0,0,0,0,0,0,0.2573,0.2578,0.263,0.2632,0.2634,0.2673,0.2656,0.2695,0.2684,0.2663,0.2683,0.2683,0.2702,0.2704,0.2713,0.2738,0.274,0.2724,0.2725,0.2726,0.2726,0,0,0,0,0,0,0,0.257,0.2576,0.2638,0.2631,0.2634,0.2641,0.2646,0.2663,0.2682,0.2665,0.2666,0.2676,0.2702,0.2711,0.2714,0.274,0.2724,0.2725,0.2727,0.2727,0.2845,0.2847,0,0,0,0,0,0,0.2567,0.2573,0.2636,0.264,0.2604,0.2643,0.2649,0.2659,0.2682,0.2686,0.2676,0.2676,0.2709,0.2712,0.2715,0.2781,0.2726,0.2727,0.2728,0.2843,0.2845,0.2847,0,0,0,0,0,0,0.2565,0.2573,0.2634,0.2609,0.2618,0.2645,0.2657,0.2661,0.268,0.2691,0.2694,0.2693,0.2708,0.2712,0.2746,0.278,0.2728,0.273,0.284,0.2843,0.2846,0.2885,0,0,0,0,0,0,0.2563,0.2571,0.2583,0.2609,0.2619,0.2667,0.2658,0.2662,0.2687,0.2688,0.2707,0.2709,0.2708,0.2744,0.2748,0.2782,0.2731,0.2837,0.2842,0.2845,0.2881,0.2889,0.2896,0,0,0,0,0,0.2559,0.2575,0.2583,0.2591,0.2632,0.2668,0.2674,0.269,0.2689,0.2704,0.2719,0.2709,0.2772,0.2746,0.2751,0.2786,0.2835,0.284,0.2845,0.2878,0.2887,0.2896,0,0,0,0,0,0,0.2539,0.2578,0.2587,0.2613,0.2644,0.2671,0.269,0.2699,0.2723,0.2727,0.2728,0.2733,0.2776,0.278,0.2752,0.2835,0.2806,0.2811,0.2829,0.2838,0.2846,0.285,0.2732,0,0,0,0,0,0.2542,0.2566,0.2601,0.2623,0.2641,0.2668,0.2686,0.27,0.2724,0.2734,0.2749,0.2772,0.2799,0.2816,0.2838,0.2879,0.2904,0.291,0.2917,0.2923,0.2932,0.3008,0.3023,0.2863,0.2863,0.2863,0,0,0.254,0.2566,0.2579,0.2622,0.2647,0.2678,0.2678,0.2714,0.2742,0.2735,0.2777,0.2795,0.2816,0.2863,0.2884,0.287,0.2983,0.2929,0.2934,0.294,0.3015,0.303,0.3044,0.2866,0.2866,0.2865,0,0,0.255,0.2574,0.26,0.2628,0.2674,0.2695,0.2708,0.2748,0.2769,0.2812,0.2819,0.2859,0.2896,0.2923,0.2939,0.3004,0.3017,0.3017,0.306,0.3134,0.3147,0.3159,0.321,0.3227,0.3024,0.3024,0.3024,0,0.2551,0.258,0.2612,0.2644,0.2672,0.2703,0.2737,0.2766,0.2811,0.2842,0.2832,0.2919,0.2926,0.2996,0.3017,0.302,0.306,0.3018,0.3143,0.3155,0.3167,0.3217,0.3234,0.3026,0.3026,0.3026,0.3025,0,0.2573,0.2604,0.2623,0.2674,0.2711,0.2743,0.2791,0.283,0.2858,0.2892,0.2968,0.2991,0.305,0.3059,0.3053,0.3148,0.3148,0.3138,0.3115,0.3185,0.3233,0.3251,0.303,0.3029,0.3028,0.3028,0,0,0.2559,0.2625,0.2631,0.2662,0.2728,0.276,0.282,0.2887,0.2943,0.2986,0.3064,0.3106,0.3137,0.3158,0.3171,0.3224,0.3329,0.322,0.3222,0.3261,0.3492,0.3427,0.3439,0.3348,0.3351,0.3354,0.349,0,0.2568,0.2619,0.2657,0.2715,0.2751,0.2805,0.2858,0.2928,0.2994,0.3078,0.3125,0.3203,0.3172,0.3218,0.3267,0.3323,0.3379,0.3292,0.3425,0.3429,0.3356,0.3459,0.3191,0.3285,0.3507,0.351,0.3513,0,0.2578,0.2613,0.2663,0.2745,0.2767,0.2806,0.2916,0.2977,0.3098,0.3151,0.3243,0.3298,0.3394,0.3354,0.3486,0.3439,0.3473,0.3498,0.3504,0.3442,0.3398,0.3252,0.3308,0.3542,0.354,0.3537,0.3535,0,0.2543,0.2623,0.2659,0.2683,0.2775,0.2816,0.2879,0.3,0.3071,0.3224,0.3313,0.3414,0.3501,0.3559,0.3621,0.3575,0.376,0.3703,0.3673,0.3668,0.3464,0.3435,0.38,0.38,0.38,0.38,0.3799,0,0.2528,0.2562,0.2645,0.2656,0.2727,0.2809,0.2912,0.2986,0.3122,0.3231,0.3362,0.3465,0.3563,0.3678,0.3689,0.3753,0.3827,0.3707,0.3714,0.3469,0.3441,0.3675,0.3659,0.3805,0.3804,0.3803,0.3802,0,0.2483,0.2526,0.2583,0.2673,0.2706,0.2768,0.291,0.2986,0.3135,0.3291,0.3351,0.3537,0.3687,0.3779,0.3892,0.3854,0.3906,0.3904,0.3603,0.3571,0.374,0.3724,0.388,0.3879,0.3878,0.3878,0.3877,0,0.2459,0.2481,0.2578,0.2623,0.2663,0.2768,0.2833,0.2963,0.3065,0.3322,0.3393,0.3601,0.3709,0.3872,0.3864,0.3904,0.3941,0.366,0.3509,0.3765,0.3756,0.3741,0.3727,0.3255,0.3249,0.3245,0.3241,0,0.2431,0.2469,0.251,0.2578,0.2644,0.2723,0.2839,0.2892,0.3076,0.321,0.3365,0.3467,0.3674,0.3596,0.3688,0.3657,0.3627,0.3568,0.3957,0.3271,0.3185,0.3173,0.3177,0.3201,0.3205,0.3208,0.321,0.3211,0.2418,0.2436,0.2477,0.2544,0.2628,0.2655,0.2647,0.2772,0.2852,0.2998,0.3185,0.3261,0.3357,0.334,0.3275,0.3238,0.3458,0.3289,0.3299,0.3315,0.3214,0.3131,0.3116,0.312,0.3123,0.3125,0.3128,0,0.2374,0.24,0.2447,0.2488,0.2521,0.2574,0.2634,0.2586,0.2613,0.2794,0.2889,0.2727,0.2744,0.2843,0.2737,0.2758,0.2689,0.2638,0.2515,0.2561,0.26,0.2456,0.216,0.2157,0.2153,0.215,0,0,0.2358,0.2335,0.2336,0.2348,0.2397,0.2314,0.2293,0.2247,0.2317,0.2304,0.235,0.2603,0.2767,0.2408,0.2395,0.2255,0.2372,0.2173,0.2963,0.2864,0.2898,0.301,0.2846,0,0,0,0,0]},{"header":{"parameterUnit":"m.s-1","parameterCategory":2,"la1":30.2991,"la2":30.254,"lo1":-89.0895,"lo2":-89.0444,"dy":0.0017,"dx":0.0017,"nx":28,"ny":28,"refTime":"2025-02-06T09:00:00:Z","depth":"2","parameterNumber":3,"parameterNumberName":"V-component_of_CURRENTS"},"data":[0,0,0,0,0,0,0,0,0,0,0,0,0,0,0,0,0,0,0,0,0,0,0,0,0,0,0,0,0,0,0,0,0,0,0,0,0,0,0,0,0,0,0,0,0,0,0,0,0,0,0,0,0,0,0,0,0,0,-0.0014,-0.0015,0,-0.0076,-0.0077,-0.0078,-0.0129,-0.0129,-0.013,-0.013,-0.0231,-0.0233,-0.0235,0,0,0,0,0,0,0,0,0,0,0,0,0,-0.0001,-0.0001,-0.0014,-0.0015,-0.0015,-0.0076,-0.0077,-0.0078,-0.0129,-0.0129,-0.013,-0.013,-0.023,-0.0233,-0.0235,0,0,0,0,0,0,0,0,0,0,0,0,0,-0.0031,-0.0001,-0.0014,-0.0046,-0.0049,-0.0076,-0.0077,-0.0079,-0.0129,-0.0129,-0.013,-0.013,-0.0229,-0.0232,-0.0236,-0.0249,0,0,-0.0247,-0.0248,0,0,0,0,0,0,0,0,-0.0029,-0.0032,-0.0041,-0.0044,-0.0048,-0.0093,-0.011,-0.0137,-0.0129,-0.0101,-0.013,-0.013,-0.0186,-0.0193,-0.0207,-0.0253,-0.0258,-0.0247,-0.0249,-0.0251,-0.0252,0,0,0,0,0,0,0,-0.0027,-0.003,-0.0041,-0.0041,-0.0045,-0.0078,-0.0083,-0.0115,-0.0143,-0.0104,-0.0107,-0.011,-0.0189,-0.0203,-0.021,-0.0259,-0.0247,-0.025,-0.0252,-0.0254,-0.0319,-0.0318,0,0,0,0,0,0,-0.0011,-0.0027,-0.0039,-0.0043,-0.0037,-0.0078,-0.0083,-0.008,-0.0142,-0.0151,-0.0109,-0.0112,-0.0197,-0.0205,-0.0213,-0.0215,-0.0251,-0.0254,-0.0256,-0.0319,-0.0318,-0.0318,0,0,0,0,0,0,-0.001,-0.0011,-0.0037,-0.0035,-0.0041,-0.0077,-0.0074,-0.0081,-0.0092,-0.0145,-0.0156,-0.0112,-0.0198,-0.0208,-0.0233,-0.022,-0.0256,-0.0259,-0.032,-0.0319,-0.0318,-0.0228,0,0,0,0,0,0,-0.001,-0.001,-0.0005,-0.0034,-0.004,-0.0042,-0.0073,-0.0082,-0.0093,-0.0097,-0.0151,-0.0161,-0.0199,-0.0227,-0.0236,-0.0225,-0.0262,-0.032,-0.0319,-0.0318,-0.0232,-0.0224,-0.0218,0,0,0,0,0,-0.0009,0.0008,-0.0005,-0.0006,-0.003,-0.0041,-0.0047,-0.0077,-0.0092,-0.009,-0.0126,-0.016,-0.0229,-0.0229,-0.024,-0.023,-0.032,-0.0319,-0.0319,-0.0235,-0.0226,-0.0218,0,0,0,0,0,0,0.0016,0.0004,-0.0011,0.0001,-0.0015,-0.0048,-0.0049,-0.0069,-0.0096,-0.0101,-0.0153,-0.0165,-0.0183,-0.0219,-0.0218,-0.0247,-0.0281,-0.0282,-0.0213,-0.0205,-0.0199,-0.0178,-0.0265,0,0,0,0,0,0.0025,0.0033,0.0013,0.0021,0.0016,-0.0016,-0.0025,-0.0042,-0.0068,-0.0081,-0.0118,-0.0158,-0.0189,-0.0205,-0.024,-0.0253,-0.029,-0.0255,-0.0248,-0.0243,-0.0234,-0.0272,-0.0268,-0.0315,-0.0315,-0.0315,0,0,0.0036,0.0031,0.0034,0.0026,0.0009,0.0017,-0.0022,-0.0026,-0.0021,-0.0087,-0.0094,-0.0136,-0.0188,-0.0202,-0.0214,-0.0229,-0.0249,-0.0241,-0.0236,-0.023,-0.027,-0.0266,-0.0262,-0.0314,-0.0314,-0.0314,0,0,0.0069,0.0059,0.0078,0.0072,0.006,0.0043,0.0047,0.0021,0.0008,-0.0005,-0.005,-0.0079,-0.0128,-0.0158,-0.018,-0.0158,-0.0213,-0.0173,-0.0121,-0.0158,-0.0154,-0.0151,-0.019,-0.0192,-0.0168,-0.0168,-0.0168,0,0.0083,0.0104,0.0081,0.0099,0.0101,0.0062,0.0084,0.0068,0.0037,0.0034,0.0005,-0.0059,-0.0105,-0.0118,-0.0114,-0.0142,-0.0174,-0.0144,-0.0148,-0.0146,-0.0144,-0.0185,-0.0188,-0.0164,-0.0164,-0.0164,-0.0165,0,0.0129,0.0146,0.0158,0.0168,0.0166,0.0179,0.016,0.0158,0.0134,0.0113,0.0091,0.0028,-0.0008,-0.003,-0.0068,-0.0076,-0.0106,-0.0134,-0.0163,-0.0134,-0.0179,-0.0184,-0.0157,-0.0159,-0.016,-0.0161,0,0,0.0165,0.0187,0.0192,0.0214,0.0206,0.0217,0.0228,0.0229,0.0249,0.02,0.0213,0.0145,0.0108,0.0079,0.0027,-0.001,-0.0034,-0.0061,-0.0065,-0.0091,-0.0117,-0.0146,-0.0154,-0.0062,-0.0062,-0.0062,-0.0152,0,0.0208,0.0263,0.0256,0.0307,0.0335,0.0311,0.0328,0.0323,0.0307,0.0311,0.0243,0.0228,0.0151,0.0138,0.009,0.0003,-0.0041,-0.0007,-0.015,-0.0154,-0.0176,-0.0158,-0.0123,-0.0201,-0.0157,-0.0158,-0.0158,0,0.0257,0.029,0.0346,0.039,0.0399,0.0419,0.0448,0.0464,0.0453,0.0438,0.0406,0.035,0.0295,0.0224,0.0087,0.0112,0.0007,-0.0072,-0.0078,-0.0138,-0.019,-0.0225,-0.0211,-0.0166,-0.0166,-0.0165,-0.0165,0,0.03,0.0356,0.0406,0.0419,0.0454,0.0477,0.0498,0.0502,0.0535,0.0527,0.055,0.0454,0.0429,0.0286,0.012,0.0102,-0.0035,-0.0081,-0.021,-0.0214,-0.0228,-0.0233,-0.0183,-0.0183,-0.0183,-0.0182,-0.0182,0,0.035,0.0394,0.0435,0.0463,0.0539,0.0538,0.0614,0.0621,0.0644,0.0706,0.0626,0.0645,0.0444,0.0341,0.0163,-0.0026,-0.0006,-0.0196,-0.0236,-0.0197,-0.0197,-0.0204,-0.0206,-0.0186,-0.0185,-0.0184,-0.0184,0,0.0387,0.0409,0.048,0.0533,0.0561,0.0618,0.0701,0.0757,0.0772,0.0854,0.0858,0.0786,0.0654,0.0446,0.0217,0.0049,-0.0144,-0.0222,-0.0163,-0.0195,-0.0315,-0.0311,-0.0379,-0.0381,-0.0382,-0.0384,-0.0385,0,0.0409,0.0447,0.0537,0.0599,0.0628,0.0718,0.0783,0.0816,0.089,0.0947,0.0997,0.0897,0.0845,0.0506,0.019,-0.0118,-0.0156,-0.0291,-0.0326,-0.0302,-0.0334,-0.0327,-0.0321,-0.0314,-0.0314,-0.0315,-0.0315,0,0.0456,0.0483,0.0545,0.0667,0.0751,0.0855,0.0957,0.1029,0.1091,0.1161,0.121,0.1165,0.0866,0.0562,0.0153,-0.0057,-0.0242,-0.0308,-0.0289,-0.0267,-0.0247,-0.0276,-0.0271,-0.0317,-0.0317,-0.0317,-0.0317,-0.0317,0.0492,0.0542,0.0623,0.0745,0.0857,0.0978,0.1077,0.1186,0.1301,0.1416,0.1354,0.1321,0.0974,0.0457,0.0095,-0.0271,-0.027,-0.04,-0.0396,-0.0393,-0.0366,-0.035,-0.0434,-0.0435,-0.0435,-0.0435,-0.0436,0,0.0527,0.0589,0.07,0.084,0.0975,0.1017,0.119,0.129,0.1447,0.153,0.1562,0.1241,0.0904,0.0524,-0.0023,-0.0367,-0.0383,-0.0465,-0.0408,-0.0403,-0.0399,-0.0371,-0.0442,-0.0443,-0.0444,-0.0445,0,0,0.0547,0.0633,0.0686,0.0903,0.1025,0.1192,0.1296,0.1443,0.1551,0.1623,0.1615,0.1525,0.1048,0.0652,0.0186,-0.0119,-0.0177,-0.0179,-0.0138,-0.001,-0.0002,-0.0329,-0.0277,0,0,0,0,0]}],[{"header":{"parameterUnit":"m.s-1","parameterCategory":2,"la1":30.2991,"la2":30.254,"lo1":-89.0895,"lo2":-89.0444,"dy":0.0017,"dx":0.0017,"nx":28,"ny":28,"refTime":"2025-02-06T09:00:00:Z","depth":"4","parameterNumber":2,"parameterNumberName":"U-component_of_CURRENTS"},"data":[0,0,0,0,0,0,0,0,0,0,0,0,0,0,0,0,0,0,0,0,0,0,0,0,0,0,0,0,0,0,0,0,0,0,0,0,0,0,0,0,0,0,0,0,0,0,0,0,0,0,0,0,0,0,0,0,0,0,0.1688,0.1689,0,0.1766,0.1767,0.1768,0.1828,0.1829,0.1829,0.183,0.19,0.1901,0.1902,0,0,0,0,0,0,0,0,0,0,0,0,0,0.1581,0.1583,0.1687,0.1689,0.169,0.1766,0.1767,0.1768,0.1828,0.1829,0.1829,0.183,0.1899,0.1901,0.1902,0,0,0,0,0,0,0,0,0,0,0,0,0,0.1638,0.1583,0.1687,0.173,0.1735,0.1766,0.1767,0.1768,0.1827,0.1829,0.183,0.1831,0.1899,0.1901,0.1902,0.189,0,0,0.1908,0.1908,0,0,0,0,0,0,0,0,0.1635,0.1642,0.1723,0.1728,0.1733,0.179,0.1756,0.1809,0.1827,0.179,0.183,0.1831,0.1863,0.1868,0.1877,0.1894,0.1897,0.1908,0.1909,0.191,0.191,0,0,0,0,0,0,0,0.1631,0.1639,0.1717,0.1724,0.173,0.1744,0.1753,0.1766,0.1817,0.1793,0.1799,0.181,0.1866,0.1875,0.1879,0.1898,0.1908,0.1909,0.191,0.1911,0.2022,0.2024,0,0,0,0,0,0,0.1625,0.1635,0.1714,0.1719,0.1688,0.1745,0.1755,0.1769,0.1818,0.1827,0.1809,0.1813,0.1872,0.1877,0.1882,0.1974,0.191,0.1911,0.1912,0.2021,0.2023,0.2025,0,0,0,0,0,0,0.1623,0.1631,0.1711,0.168,0.1692,0.1746,0.1761,0.177,0.1818,0.183,0.1839,0.1853,0.1873,0.1879,0.1932,0.1973,0.1912,0.1914,0.2018,0.2021,0.2024,0.2092,0,0,0,0,0,0,0.1619,0.163,0.1653,0.168,0.1694,0.1753,0.176,0.1771,0.1822,0.1829,0.1869,0.1875,0.1874,0.1929,0.1934,0.1975,0.1915,0.2016,0.202,0.2023,0.2087,0.2097,0.2105,0,0,0,0,0,0.1615,0.1636,0.1653,0.1664,0.1718,0.1754,0.1763,0.1802,0.1824,0.1849,0.1883,0.1876,0.1955,0.1932,0.1937,0.1979,0.2014,0.2018,0.2023,0.2083,0.2095,0.2105,0,0,0,0,0,0,0.1603,0.1645,0.1665,0.1699,0.1736,0.1766,0.1799,0.1822,0.1869,0.1888,0.1897,0.1905,0.1969,0.1963,0.1938,0.2023,0.1985,0.199,0.2029,0.204,0.2049,0.2049,0.1916,0,0,0,0,0,0.1609,0.164,0.1678,0.171,0.1733,0.1773,0.1799,0.1828,0.1864,0.1888,0.1918,0.195,0.1982,0.2004,0.2028,0.207,0.2076,0.2101,0.211,0.2118,0.2123,0.2176,0.219,0.2039,0.2039,0.2039,0,0,0.1614,0.1643,0.1661,0.1711,0.1746,0.1781,0.1793,0.1845,0.1883,0.1886,0.1958,0.1985,0.2002,0.2056,0.2083,0.2061,0.2165,0.2123,0.2129,0.213,0.2182,0.2197,0.221,0.2042,0.2041,0.2041,0,0,0.1625,0.1667,0.1693,0.1728,0.1788,0.1812,0.1835,0.1889,0.1928,0.1988,0.2007,0.2062,0.2106,0.213,0.2144,0.2215,0.2213,0.2229,0.2273,0.2326,0.2338,0.235,0.2378,0.2391,0.2231,0.2231,0.2231,0,0.1631,0.167,0.1708,0.1742,0.1778,0.183,0.1867,0.1908,0.1975,0.2013,0.2023,0.2123,0.2139,0.2205,0.2234,0.2235,0.2259,0.223,0.2337,0.2348,0.2359,0.2385,0.2399,0.2235,0.2234,0.2234,0.2233,0,0.1653,0.1698,0.1721,0.1782,0.1822,0.1869,0.1924,0.1982,0.2036,0.2076,0.2171,0.2204,0.2264,0.2281,0.228,0.2367,0.2358,0.2344,0.2308,0.2378,0.2401,0.2415,0.224,0.2239,0.2237,0.2237,0,0,0.1625,0.1719,0.1729,0.1767,0.1852,0.1882,0.1959,0.2036,0.2098,0.2171,0.2251,0.2317,0.2354,0.2373,0.239,0.2434,0.2527,0.2427,0.2428,0.2451,0.2641,0.2476,0.2474,0.2541,0.2544,0.2546,0.2627,0,0.1636,0.1699,0.1749,0.1819,0.1857,0.1933,0.1997,0.2077,0.2153,0.2243,0.2305,0.2389,0.2383,0.2433,0.2477,0.2523,0.2565,0.2505,0.2572,0.2574,0.2416,0.2484,0.2555,0.2637,0.264,0.2642,0.2644,0,0.1634,0.1681,0.1748,0.1845,0.1872,0.1927,0.2047,0.2113,0.2241,0.2309,0.2404,0.246,0.2557,0.2535,0.2645,0.2614,0.2637,0.2655,0.2659,0.2487,0.2433,0.2553,0.2667,0.2665,0.2663,0.2662,0.266,0,0.1578,0.1676,0.1733,0.1767,0.1883,0.1943,0.2016,0.214,0.2212,0.2366,0.2437,0.2551,0.263,0.2684,0.2731,0.271,0.2832,0.2801,0.2669,0.2657,0.275,0.2737,0.2872,0.2872,0.2872,0.2872,0.2871,0,0.1553,0.1601,0.172,0.175,0.1831,0.1925,0.2029,0.2122,0.2263,0.2345,0.2473,0.2549,0.2677,0.2755,0.2773,0.2759,0.2871,0.2686,0.2672,0.2776,0.2766,0.2759,0.2745,0.2875,0.2874,0.2873,0.2873,0,0.148,0.1561,0.163,0.176,0.1807,0.1867,0.2026,0.2089,0.2244,0.2357,0.2415,0.2588,0.2689,0.2774,0.2874,0.2798,0.2809,0.2773,0.2886,0.2875,0.2587,0.2576,0.263,0.2625,0.2621,0.2617,0.2614,0,0.1444,0.1473,0.1613,0.1652,0.172,0.1827,0.1893,0.2064,0.2131,0.235,0.2384,0.2555,0.2645,0.2652,0.2756,0.2781,0.2746,0.2728,0.2644,0.2584,0.2566,0.2562,0.2556,0.2607,0.2606,0.2605,0.2604,0,0.1368,0.1434,0.1489,0.1565,0.1643,0.1712,0.1824,0.1868,0.2054,0.2219,0.2305,0.2372,0.2479,0.2554,0.2597,0.2606,0.2726,0.2682,0.269,0.2611,0.2557,0.2543,0.2542,0.2589,0.2591,0.2593,0.2594,0,0.1311,0.1323,0.1396,0.1451,0.1534,0.1557,0.1645,0.173,0.1825,0.2074,0.2102,0.2281,0.2453,0.2465,0.2503,0.2504,0.2462,0.2369,0.2392,0.241,0.23,0.2196,0.2114,0,0,0,0,0,0.1239,0.1229,0.1268,0.131,0.1382,0.1426,0.1569,0.1663,0.1862,0.1866,0.198,0.207,0.2153,0.2256,0.2213,0.2399,0.2461,0.2337,0.2362,0.2507,0.2524,0.2414,0,0,0,0,0,0,0.1183,0.1213,0.1217,0.1172,0.1173,0.1229,0.1315,0.1453,0.1478,0.1697,0.1761,0.1925,0.2043,0.2142,0.2162,0.2191,0.2161,0.2459,0.2453,0.2497,0.2513,0.2527,0.242,0,0,0,0,0]},{"header":{"parameterUnit":"m.s-1","parameterCategory":2,"la1":30.2991,"la2":30.254,"lo1":-89.0895,"lo2":-89.0444,"dy":0.0017,"dx":0.0017,"nx":28,"ny":28,"refTime":"2025-02-06T09:00:00:Z","depth":"4","parameterNumber":3,"parameterNumberName":"V-component_of_CURRENTS"},"data":[0,0,0,0,0,0,0,0,0,0,0,0,0,0,0,0,0,0,0,0,0,0,0,0,0,0,0,0,0,0,0,0,0,0,0,0,0,0,0,0,0,0,0,0,0,0,0,0,0,0,0,0,0,0,0,0,0,0,0.0004,0.0004,0,-0.0039,-0.004,-0.004,-0.0078,-0.0079,-0.0079,-0.0079,-0.0152,-0.0153,-0.0155,0,0,0,0,0,0,0,0,0,0,0,0,0,0.001,0.0011,0.0004,0.0004,0.0004,-0.0039,-0.004,-0.0041,-0.0078,-0.0079,-0.0079,-0.0079,-0.0151,-0.0153,-0.0155,0,0,0,0,0,0,0,0,0,0,0,0,0,-0.001,0.0011,0.0004,-0.0019,-0.0022,-0.0039,-0.004,-0.0041,-0.0078,-0.0079,-0.0079,-0.008,-0.015,-0.0153,-0.0155,-0.0162,0,0,-0.0163,-0.0164,0,0,0,0,0,0,0,0,-0.0009,-0.001,-0.0015,-0.0018,-0.002,-0.0052,-0.0064,-0.0082,-0.0078,-0.0059,-0.0079,-0.008,-0.012,-0.0125,-0.0134,-0.0165,-0.0168,-0.0163,-0.0165,-0.0166,-0.0166,0,0,0,0,0,0,0,-0.0007,-0.0009,-0.0015,-0.0016,-0.0019,-0.0043,-0.0046,-0.0068,-0.0088,-0.006,-0.0063,-0.0065,-0.0122,-0.0131,-0.0136,-0.0169,-0.0163,-0.0165,-0.0167,-0.0168,-0.0215,-0.0215,0,0,0,0,0,0,0.0004,-0.0007,-0.0013,-0.0016,-0.0014,-0.0042,-0.0046,-0.0043,-0.0087,-0.0094,-0.0065,-0.0067,-0.0127,-0.0133,-0.0139,-0.0142,-0.0166,-0.0168,-0.0169,-0.0215,-0.0215,-0.0214,0,0,0,0,0,0,0.0005,0.0004,-0.0011,-0.0012,-0.0015,-0.0041,-0.0038,-0.0044,-0.0053,-0.009,-0.0097,-0.0067,-0.0127,-0.0135,-0.0152,-0.0145,-0.0169,-0.0171,-0.0215,-0.0215,-0.0215,-0.0153,0,0,0,0,0,0,0.0005,0.0005,0.0009,-0.001,-0.0015,-0.0015,-0.0038,-0.0044,-0.0052,-0.0056,-0.0095,-0.0102,-0.0128,-0.0148,-0.0155,-0.0149,-0.0173,-0.0216,-0.0215,-0.0215,-0.0155,-0.015,-0.0146,0,0,0,0,0,0.0006,0.0018,0.001,0.0009,-0.0007,-0.0014,-0.0018,-0.004,-0.0052,-0.0051,-0.0077,-0.0101,-0.015,-0.015,-0.0158,-0.0152,-0.0216,-0.0215,-0.0215,-0.0157,-0.0151,-0.0146,0,0,0,0,0,0,0.0023,0.0015,0.0005,0.0014,0.0003,-0.002,-0.0021,-0.0035,-0.0055,-0.0058,-0.0096,-0.0104,-0.0119,-0.0143,-0.0142,-0.0165,-0.0188,-0.0189,-0.0141,-0.0136,-0.0132,-0.0119,-0.0175,0,0,0,0,0,0.0029,0.0036,0.0022,0.0029,0.0026,0.0003,-0.0003,-0.0016,-0.0034,-0.0044,-0.0071,-0.01,-0.0122,-0.0134,-0.016,-0.0169,-0.0203,-0.0172,-0.0168,-0.0164,-0.0159,-0.0203,-0.0202,-0.0213,-0.0213,-0.0213,0,0,0.0037,0.0034,0.0037,0.0033,0.0021,0.0027,-0.0002,-0.0004,-0.0001,-0.0048,-0.0054,-0.0085,-0.0122,-0.0134,-0.0143,-0.0153,-0.0179,-0.0163,-0.0159,-0.0157,-0.0202,-0.0201,-0.02,-0.0212,-0.0212,-0.0212,0,0,0.0061,0.0055,0.0069,0.0066,0.0057,0.0045,0.0048,0.0029,0.0019,0.0011,-0.0023,-0.0047,-0.0081,-0.0105,-0.0122,-0.0108,-0.0155,-0.0118,-0.0084,-0.0126,-0.0125,-0.0125,-0.0168,-0.0172,-0.0115,-0.0115,-0.0115,0,0.007,0.0087,0.0071,0.0084,0.0087,0.0059,0.0075,0.0063,0.0041,0.0036,0.0018,-0.0034,-0.0066,-0.0082,-0.0079,-0.0097,-0.0131,-0.0099,-0.012,-0.012,-0.0121,-0.0165,-0.017,-0.0112,-0.0112,-0.0112,-0.0113,0,0.0103,0.0116,0.0125,0.0134,0.0134,0.0144,0.013,0.0128,0.0111,0.0093,0.0072,0.0025,-0.0005,-0.0021,-0.0046,-0.0065,-0.009,-0.0109,-0.013,-0.0116,-0.0163,-0.017,-0.0107,-0.0108,-0.0109,-0.011,0,0,0.0124,0.0145,0.0149,0.0165,0.0163,0.017,0.0179,0.0178,0.0185,0.0151,0.015,0.0103,0.0071,0.005,0.0011,-0.0027,-0.0065,-0.0065,-0.0069,-0.0102,-0.0161,-0.0162,-0.017,-0.0089,-0.009,-0.009,-0.0191,0,0.0154,0.0194,0.0194,0.0232,0.0251,0.0238,0.025,0.0244,0.0226,0.0218,0.0165,0.0147,0.0101,0.0087,0.0043,-0.0037,-0.0079,-0.0036,-0.0174,-0.0178,-0.0177,-0.0176,-0.0093,-0.0196,-0.0198,-0.0199,-0.02,0,0.0185,0.021,0.0253,0.0288,0.0295,0.0312,0.0329,0.0339,0.0318,0.0302,0.0269,0.0223,0.0169,0.0126,-0.0002,0.0028,-0.0058,-0.0126,-0.0132,-0.0158,-0.0191,-0.0216,-0.0213,-0.0212,-0.0211,-0.021,-0.0209,0,0.0209,0.0253,0.0291,0.0302,0.0333,0.0352,0.0369,0.0364,0.0383,0.0357,0.0354,0.0279,0.0244,0.013,-0.0007,-0.0007,-0.0157,-0.0177,-0.0261,-0.0262,-0.0259,-0.0258,-0.027,-0.027,-0.027,-0.027,-0.0269,0,0.0239,0.0272,0.031,0.0332,0.0387,0.0392,0.044,0.0443,0.0451,0.0475,0.0403,0.0391,0.0243,0.014,0.0009,-0.0144,-0.0149,-0.0255,-0.0287,-0.0231,-0.0226,-0.0264,-0.0262,-0.0274,-0.0273,-0.0272,-0.0271,0,0.0253,0.0278,0.033,0.0377,0.04,0.0439,0.0502,0.0534,0.053,0.0558,0.0554,0.0473,0.0342,0.0179,-0.001,-0.0114,-0.0267,-0.0323,-0.025,-0.0277,-0.035,-0.0343,-0.0422,-0.0423,-0.0423,-0.0424,-0.0424,0,0.0263,0.029,0.0365,0.0409,0.0435,0.0498,0.0546,0.0574,0.0612,0.0606,0.0621,0.0512,0.0435,0.0177,-0.0005,-0.0256,-0.0293,-0.0374,-0.0362,-0.0341,-0.0365,-0.0357,-0.035,-0.0426,-0.0426,-0.0426,-0.0426,0,0.028,0.0306,0.0351,0.0442,0.0506,0.0584,0.0653,0.0689,0.072,0.071,0.0684,0.0551,0.0401,0.0196,-0.0002,-0.0184,-0.0321,-0.0383,-0.0382,-0.0372,-0.0347,-0.0368,-0.036,-0.0429,-0.0428,-0.0428,-0.0428,0,0.0292,0.0326,0.039,0.0475,0.0561,0.065,0.0685,0.0734,0.0771,0.0764,0.075,0.0586,0.0493,0.0231,0.0048,-0.0129,-0.0175,-0.0231,-0.024,-0.0239,-0.0159,-0.0099,-0.013,0,0,0,0,0,0.0304,0.0348,0.0422,0.052,0.0608,0.0664,0.0751,0.0778,0.0804,0.0801,0.0783,0.0646,0.0386,0.0272,0.0098,0.0014,-0.0222,-0.0198,-0.0294,-0.0442,-0.0439,-0.0376,0,0,0,0,0,0,0.0311,0.0376,0.0419,0.0544,0.0617,0.0721,0.078,0.0802,0.0804,0.0798,0.067,0.0598,0.0347,0.0489,0.0094,0.0037,-0.0048,-0.0322,-0.0326,-0.0444,-0.0441,-0.0439,-0.0373,0,0,0,0,0]}]]